User: anonymous   Login
Location: Morlupo
(42.1333°N, 12.5000°E)
Time: 14:55:11
(UTC+00:00)
Language:

Cosmos 1674 - Orbit

View from above orbital plane
View from above orbital plane
View from above satellite
View from above satellite

Ground track
Ground track

The orbit data is extracted from the following two-line orbital elements,

1 15944U 85069A   20334.20440047  .00001601  00000-0  72471-4 0  9997
2 15944  82.5095  58.5240 0018128  61.7185 298.5876 15.20014626929402
Epoch (UTC): 29 November 2020 04:54:20
Eccentricity: 0.0018128
inclination: 82.5095°
perigee height: 493 km
apogee height: 518 km
right ascension of ascending node: 58.5240°
argument of perigee: 61.7185°
revolutions per day: 15.20014626
mean anomaly at epoch: 298.5876°
orbit number at epoch: 92940

The dashed part of the orbit path shows where the satellite is in the earth's shadow,  

DLR